SWA508 KMDW-KCMH

Flight info

Callsign SWA508
Flight time 0h 56m
Altitude 31000
Route LEWKE GIJ SEWTO FWA BRYEN DUBLN1
Aircraft B38M/M-SDE1FGHILORVWXY/HB1

Departure

Time 2026-05-09 00:00
Airport Chicago Midway International Airport (KMDW)

Arrival

Time 2026-05-09 00:56
Airport John Glenn Columbus International Airport (KCMH)
Time Latitude Longitude Altitude Speed Heading
2026-05-08 23:00 41.78672 -87.74474 631 ft 0 kts 312°
2026-05-08 23:50 41.78671 -87.74473 632 ft 1 kts 312°
2026-05-08 23:50 41.78656 -87.74450 635 ft 4 kts 301°
2026-05-08 23:51 41.78650 -87.74418 632 ft 4 kts 256°
2026-05-08 23:51 41.78661 -87.74392 632 ft 1 kts 223°
2026-05-08 23:51 41.78665 -87.74388 635 ft 0 kts 223°
2026-05-08 23:54 41.78657 -87.74398 631 ft 3 kts 223°
2026-05-08 23:54 41.78627 -87.74435 631 ft 8 kts 223°
2026-05-08 23:54 41.78570 -87.74506 631 ft 14 kts 223°
2026-05-08 23:55 41.78525 -87.74670 631 ft 10 kts 314°
2026-05-08 23:55 41.78581 -87.74749 631 ft 13 kts 314°
2026-05-08 23:55 41.78616 -87.74842 637 ft 9 kts 237°
2026-05-08 23:55 41.78563 -87.74911 639 ft 13 kts 224°
2026-05-08 23:56 41.78470 -87.75029 634 ft 24 kts 224°
2026-05-08 23:56 41.78342 -87.75191 632 ft 23 kts 223°
2026-05-08 23:56 41.78234 -87.75328 635 ft 22 kts 223°
2026-05-08 23:56 41.78115 -87.75477 634 ft 25 kts 223°
2026-05-08 23:57 41.77998 -87.75625 634 ft 20 kts 223°
2026-05-08 23:57 41.77918 -87.75745 633 ft 8 kts 255°
2026-05-08 23:57 41.77917 -87.75749 631 ft 0 kts 262°
2026-05-08 23:58 41.77916 -87.75760 639 ft 3 kts 265°
2026-05-08 23:58 41.77914 -87.75813 636 ft 9 kts 268°
2026-05-08 23:58 41.77943 -87.75886 635 ft 10 kts 359°
2026-05-08 23:58 41.77966 -87.75872 637 ft 0 kts 43°
2026-05-08 23:59 41.78110 -87.75690 632 ft 72 kts 44°
2026-05-09 00:00 41.78679 -87.74967 638 ft 150 kts 44°
2026-05-09 00:00 41.79506 -87.73902 1149 ft 175 kts 52°
2026-05-09 00:00 41.80049 -87.72497 1772 ft 166 kts 72°
2026-05-09 00:00 41.80164 -87.70992 1979 ft 161 kts 94°
2026-05-09 00:01 41.80065 -87.69501 2154 ft 163 kts 96°
2026-05-09 00:01 41.79946 -87.67921 2344 ft 178 kts 95°
2026-05-09 00:01 41.79846 -87.66190 2468 ft 195 kts 95°
2026-05-09 00:01 41.79737 -87.64271 2790 ft 214 kts 95°
2026-05-09 00:02 41.79618 -87.62214 3698 ft 231 kts 95°
2026-05-09 00:02 41.79488 -87.59973 4505 ft 251 kts 96°
2026-05-09 00:02 41.79346 -87.57561 5345 ft 268 kts 96°
2026-05-09 00:02 41.79195 -87.55016 6269 ft 280 kts 96°
2026-05-09 00:03 41.79038 -87.52372 7297 ft 287 kts 95°
2026-05-09 00:03 41.78877 -87.49672 8299 ft 295 kts 95°
2026-05-09 00:03 41.78710 -87.46904 9308 ft 301 kts 95°
2026-05-09 00:03 41.78541 -87.44085 10266 ft 308 kts 95°
2026-05-09 00:04 41.78364 -87.41146 10933 ft 325 kts 94°
2026-05-09 00:04 41.78175 -87.38057 11625 ft 340 kts 94°
2026-05-09 00:04 41.77979 -87.34846 12356 ft 352 kts 94°
2026-05-09 00:04 41.77778 -87.31583 13202 ft 359 kts 94°
2026-05-09 00:05 41.77570 -87.28227 14068 ft 365 kts 94°
2026-05-09 00:05 41.77357 -87.24803 14871 ft 373 kts 94°
2026-05-09 00:05 41.77141 -87.21325 15729 ft 377 kts 94°
2026-05-09 00:05 41.77083 -87.17789 16461 ft 383 kts 81°
2026-05-09 00:06 41.77834 -87.14390 17257 ft 381 kts 59°
2026-05-09 00:06 41.79358 -87.11514 17917 ft 378 kts 39°
2026-05-09 00:06 41.81438 -87.09410 18589 ft 376 kts 26°
2026-05-09 00:06 41.83670 -87.07538 19267 ft 381 kts 25°
2026-05-09 00:07 41.85929 -87.05642 19947 ft 386 kts 25°
2026-05-09 00:07 41.88218 -87.03712 20588 ft 392 kts 26°
2026-05-09 00:07 41.90341 -87.01322 21233 ft 408 kts 44°
2026-05-09 00:07 41.91875 -86.98058 21871 ft 422 kts 64°
2026-05-09 00:08 41.92639 -86.94224 22449 ft 431 kts 82°
2026-05-09 00:08 41.92888 -86.90185 22997 ft 437 kts 85°
2026-05-09 00:08 41.93095 -86.86079 23520 ft 443 kts 85°
2026-05-09 00:08 41.93309 -86.81935 24065 ft 448 kts 85°
2026-05-09 00:09 41.93531 -86.77743 24598 ft 451 kts 85°
2026-05-09 00:09 41.93754 -86.73520 25031 ft 457 kts 85°
2026-05-09 00:09 41.93991 -86.69235 25533 ft 461 kts 85°
2026-05-09 00:09 41.94229 -86.64919 25977 ft 467 kts 85°
2026-05-09 00:10 41.94471 -86.60544 26409 ft 472 kts 85°
2026-05-09 00:10 41.94720 -86.56122 26865 ft 476 kts 85°
2026-05-09 00:10 41.94972 -86.51662 27270 ft 481 kts 85°
2026-05-09 00:10 41.95228 -86.47153 27669 ft 487 kts 85°
2026-05-09 00:11 41.95493 -86.42613 28084 ft 491 kts 85°
2026-05-09 00:11 41.95762 -86.38026 28476 ft 495 kts 85°
2026-05-09 00:11 41.96033 -86.33386 28858 ft 500 kts 85°
2026-05-09 00:11 41.96301 -86.28712 29224 ft 505 kts 85°
2026-05-09 00:12 41.96575 -86.23993 29618 ft 508 kts 85°
2026-05-09 00:12 41.96858 -86.19237 29967 ft 512 kts 85°
2026-05-09 00:12 41.97145 -86.14449 30317 ft 515 kts 85°
2026-05-09 00:12 41.97429 -86.09712 30794 ft 505 kts 85°
2026-05-09 00:13 41.97710 -86.05020 30860 ft 500 kts 85°
2026-05-09 00:13 41.97731 -85.95815 30793 ft 488 kts 108°
2026-05-09 00:13 41.96449 -85.91709 30810 ft 470 kts 132°
2026-05-09 00:14 41.94329 -85.88558 30823 ft 443 kts 155°
2026-05-09 00:14 41.91752 -85.86509 30835 ft 426 kts 166°
2026-05-09 00:14 41.89149 -85.84514 30816 ft 437 kts 159°
2026-05-09 00:15 41.84143 -85.79762 30820 ft 444 kts 155°
2026-05-09 00:15 41.79223 -85.74716 30824 ft 446 kts 153°
2026-05-09 00:16 41.74335 -85.69608 30828 ft 446 kts 153°
2026-05-09 00:16 41.69446 -85.64488 30832 ft 446 kts 153°
2026-05-09 00:17 41.65390 -85.60246 30833 ft 446 kts 153°
2026-05-09 00:17 41.60504 -85.55146 30833 ft 446 kts 153°
2026-05-09 00:18 41.55613 -85.50050 30828 ft 445 kts 153°
2026-05-09 00:18 41.50726 -85.44968 30831 ft 445 kts 153°
2026-05-09 00:19 41.45841 -85.39899 30849 ft 445 kts 153°
2026-05-09 00:19 41.40952 -85.34836 30841 ft 445 kts 153°
2026-05-09 00:20 41.36063 -85.29783 30846 ft 445 kts 153°
2026-05-09 00:20 41.31176 -85.24741 30849 ft 445 kts 153°
2026-05-09 00:21 41.26284 -85.19703 30631 ft 441 kts 153°
2026-05-09 00:21 41.23856 -85.17406 30659 ft 425 kts 163°
2026-05-09 00:21 41.21143 -85.16024 30662 ft 401 kts 182°
2026-05-09 00:21 41.18459 -85.15738 30767 ft 380 kts 194°
2026-05-09 00:22 41.15806 -85.15758 30874 ft 383 kts 194°
2026-05-09 00:22 41.10489 -85.15827 30869 ft 382 kts 194°
2026-05-09 00:23 41.05176 -85.15902 30871 ft 381 kts 194°
2026-05-09 00:23 40.99899 -85.15979 30867 ft 381 kts 194°
2026-05-09 00:24 40.94592 -85.16074 30867 ft 378 kts 197°
2026-05-09 00:24 40.92128 -85.16674 30474 ft 346 kts 213°
2026-05-09 00:24 40.90128 -85.18199 29646 ft 323 kts 232°
2026-05-09 00:24 40.88807 -85.20481 28783 ft 309 kts 251°
2026-05-09 00:25 40.88307 -85.23199 27855 ft 307 kts 270°
2026-05-09 00:25 40.88732 -85.25959 27215 ft 309 kts 289°
2026-05-09 00:25 40.89754 -85.28504 26489 ft 321 kts 294°
2026-05-09 00:25 40.90882 -85.31092 25555 ft 328 kts 294°
2026-05-09 00:26 40.92022 -85.33761 24407 ft 337 kts 294°
2026-05-09 00:26 40.93296 -85.36402 23455 ft 348 kts 306°
2026-05-09 00:26 40.95268 -85.38322 22812 ft 361 kts 328°
2026-05-09 00:26 40.97639 -85.39422 22919 ft 368 kts 335°
2026-05-09 00:27 41.00226 -85.39990 22819 ft 386 kts 349°
2026-05-09 00:27 41.02959 -85.39589 22853 ft 406 kts
2026-05-09 00:27 41.05591 -85.38054 22861 ft 425 kts 26°
2026-05-09 00:27 41.07799 -85.35361 22860 ft 441 kts 47°
2026-05-09 00:28 41.09254 -85.31739 22865 ft 452 kts 69°
2026-05-09 00:28 41.09725 -85.27605 22862 ft 457 kts 92°
2026-05-09 00:28 41.09147 -85.23494 22864 ft 453 kts 114°
2026-05-09 00:28 41.07625 -85.19914 22870 ft 443 kts 134°
2026-05-09 00:29 41.05687 -85.16731 22858 ft 446 kts 130°
2026-05-09 00:29 41.03914 -85.13450 22880 ft 430 kts 131°
2026-05-09 00:29 41.02199 -85.10273 22884 ft 420 kts 130°
2026-05-09 00:29 41.00525 -85.07116 22876 ft 418 kts 130°
2026-05-09 00:30 40.98872 -85.03961 22870 ft 417 kts 130°
2026-05-09 00:30 40.97229 -85.00797 22869 ft 418 kts 129°
2026-05-09 00:30 40.95586 -84.97622 22867 ft 418 kts 129°
2026-05-09 00:30 40.93949 -84.94454 22870 ft 418 kts 129°
2026-05-09 00:31 40.92307 -84.91279 22870 ft 418 kts 129°
2026-05-09 00:31 40.90666 -84.88109 22871 ft 418 kts 129°
2026-05-09 00:31 40.89027 -84.84944 22868 ft 418 kts 129°
2026-05-09 00:31 40.87384 -84.81776 22871 ft 418 kts 129°
2026-05-09 00:32 40.85751 -84.78596 22864 ft 419 kts 126°
2026-05-09 00:32 40.84507 -84.75089 22881 ft 425 kts 114°
2026-05-09 00:32 40.83413 -84.71472 22864 ft 425 kts 115°
2026-05-09 00:32 40.82297 -84.67860 22863 ft 425 kts 115°
2026-05-09 00:33 40.81178 -84.64247 22871 ft 425 kts 115°
2026-05-09 00:33 40.80057 -84.60632 22869 ft 425 kts 115°
2026-05-09 00:33 40.78935 -84.57020 22868 ft 426 kts 115°
2026-05-09 00:33 40.77813 -84.53411 22870 ft 426 kts 116°
2026-05-09 00:34 40.76689 -84.49799 22869 ft 426 kts 116°
2026-05-09 00:34 40.75563 -84.46190 22870 ft 426 kts 116°
2026-05-09 00:34 40.74437 -84.42581 22876 ft 426 kts 115°
2026-05-09 00:34 40.73306 -84.38964 22879 ft 426 kts 116°
2026-05-09 00:35 40.72176 -84.35356 22883 ft 426 kts 115°
2026-05-09 00:35 40.71046 -84.31748 22887 ft 426 kts 116°
2026-05-09 00:35 40.69912 -84.28136 22888 ft 426 kts 116°
2026-05-09 00:35 40.68779 -84.24531 22893 ft 426 kts 116°
2026-05-09 00:36 40.67646 -84.20929 22892 ft 426 kts 116°
2026-05-09 00:36 40.66509 -84.17322 22893 ft 426 kts 116°
2026-05-09 00:36 40.65375 -84.13726 22855 ft 424 kts 116°
2026-05-09 00:36 40.64239 -84.10132 22101 ft 428 kts 116°
2026-05-09 00:37 40.63085 -84.06484 21266 ft 436 kts 115°
2026-05-09 00:37 40.61926 -84.02821 20588 ft 440 kts 115°
2026-05-09 00:37 40.60750 -83.99118 20176 ft 435 kts 115°
2026-05-09 00:37 40.59594 -83.95476 19780 ft 431 kts 115°
2026-05-09 00:38 40.58443 -83.91859 19337 ft 426 kts 115°
2026-05-09 00:38 40.57314 -83.88313 18914 ft 415 kts 115°
2026-05-09 00:38 40.56211 -83.84858 18490 ft 403 kts 115°
2026-05-09 00:38 40.55139 -83.81496 18079 ft 396 kts 115°
2026-05-09 00:39 40.54074 -83.78164 17646 ft 394 kts 115°
2026-05-09 00:39 40.53013 -83.74847 17223 ft 393 kts 115°
2026-05-09 00:39 40.51957 -83.71553 16816 ft 388 kts 115°
2026-05-09 00:39 40.50911 -83.68299 16448 ft 385 kts 115°
2026-05-09 00:40 40.49874 -83.65071 16063 ft 382 kts 115°
2026-05-09 00:40 40.48845 -83.61873 15663 ft 378 kts 115°
2026-05-09 00:40 40.47831 -83.58723 15280 ft 369 kts 115°
2026-05-09 00:41 40.45836 -83.52538 14487 ft 367 kts 115°
2026-05-09 00:41 40.44843 -83.49461 14092 ft 365 kts 116°
2026-05-09 00:41 40.43635 -83.46580 13759 ft 356 kts 130°
2026-05-09 00:41 40.42162 -83.43994 13475 ft 350 kts 131°
2026-05-09 00:42 40.40719 -83.41434 13232 ft 347 kts 131°
2026-05-09 00:42 40.39293 -83.38891 12954 ft 345 kts 131°
2026-05-09 00:42 40.37876 -83.36364 12671 ft 344 kts 131°
2026-05-09 00:42 40.36468 -83.33851 12393 ft 340 kts 131°
2026-05-09 00:43 40.35069 -83.31358 12122 ft 339 kts 131°
2026-05-09 00:43 40.33673 -83.28869 11847 ft 338 kts 131°
2026-05-09 00:43 40.32284 -83.26395 11578 ft 336 kts 131°
2026-05-09 00:43 40.30773 -83.24108 11278 ft 327 kts 145°
2026-05-09 00:44 40.29005 -83.22279 11022 ft 322 kts 147°
2026-05-09 00:44 40.27262 -83.20468 10782 ft 316 kts 147°
2026-05-09 00:44 40.25572 -83.18711 10530 ft 305 kts 147°
2026-05-09 00:44 40.23939 -83.17011 10281 ft 295 kts 147°
2026-05-09 00:45 40.22341 -83.15352 10052 ft 291 kts 147°
2026-05-09 00:45 40.20775 -83.13710 9837 ft 287 kts 144°
2026-05-09 00:45 40.19519 -83.11658 9572 ft 292 kts 126°
2026-05-09 00:45 40.18433 -83.09427 9340 ft 291 kts 128°
2026-05-09 00:46 40.17334 -83.07206 9115 ft 291 kts 128°
2026-05-09 00:46 40.16210 -83.05013 8783 ft 291 kts 129°
2026-05-09 00:46 40.15051 -83.02823 8349 ft 294 kts 129°
2026-05-09 00:46 40.13887 -83.00607 7908 ft 298 kts 129°
2026-05-09 00:47 40.12707 -82.98363 7417 ft 301 kts 129°
2026-05-09 00:47 40.11539 -82.96135 7051 ft 291 kts 129°
2026-05-09 00:47 40.10410 -82.94077 6829 ft 267 kts 131°
2026-05-09 00:47 40.09403 -82.92118 6618 ft 256 kts 119°
2026-05-09 00:48 40.09006 -82.89883 6410 ft 250 kts 99°
2026-05-09 00:48 40.08851 -82.87623 6261 ft 250 kts 98°
2026-05-09 00:48 40.08709 -82.85368 6027 ft 250 kts 98°
2026-05-09 00:48 40.08588 -82.83106 5640 ft 250 kts 96°
2026-05-09 00:49 40.08477 -82.80838 5209 ft 250 kts 96°
2026-05-09 00:49 40.08367 -82.78573 4778 ft 249 kts 96°
2026-05-09 00:49 40.08259 -82.76321 4357 ft 247 kts 95°
2026-05-09 00:49 40.08151 -82.74086 3944 ft 245 kts 95°
2026-05-09 00:50 40.08046 -82.71890 3538 ft 242 kts 95°
2026-05-09 00:50 40.07942 -82.69713 3175 ft 238 kts 95°
2026-05-09 00:50 40.07841 -82.67594 3035 ft 230 kts 94°
2026-05-09 00:50 40.07727 -82.65518 3010 ft 229 kts 99°
2026-05-09 00:51 40.07094 -82.63656 2949 ft 225 kts 133°
2026-05-09 00:51 40.05811 -82.62562 2983 ft 221 kts 166°
2026-05-09 00:51 40.04299 -82.62489 3017 ft 218 kts 189°
2026-05-09 00:51 40.02845 -82.62997 2978 ft 216 kts 211°
2026-05-09 00:52 40.01804 -82.64355 2981 ft 213 kts 238°
2026-05-09 00:52 40.01075 -82.66047 3023 ft 214 kts 242°
2026-05-09 00:52 40.00390 -82.67728 2992 ft 202 kts 242°
2026-05-09 00:52 39.99759 -82.69275 2975 ft 185 kts 242°
2026-05-09 00:53 39.99313 -82.70822 2975 ft 182 kts 262°
2026-05-09 00:53 39.99290 -82.72472 3002 ft 183 kts 272°
2026-05-09 00:53 39.99372 -82.74125 2808 ft 182 kts 274°
2026-05-09 00:53 39.99466 -82.75753 2606 ft 174 kts 274°
2026-05-09 00:54 39.99552 -82.77217 2458 ft 150 kts 274°
2026-05-09 00:54 39.99625 -82.78510 2242 ft 138 kts 273°
2026-05-09 00:54 39.99697 -82.79746 2065 ft 135 kts 274°
2026-05-09 00:54 39.99768 -82.80976 1881 ft 136 kts 274°
2026-05-09 00:55 39.99837 -82.82209 1710 ft 137 kts 274°
2026-05-09 00:55 39.99906 -82.83437 1505 ft 136 kts 273°
2026-05-09 00:55 39.99990 -82.84664 1320 ft 135 kts 275°
2026-05-09 00:55 40.00062 -82.85870 1157 ft 135 kts 273°
2026-05-09 00:56 40.00109 -82.87094 976 ft 134 kts 273°
2026-05-09 00:56 40.00178 -82.88275 825 ft 124 kts 274°
2026-05-09 00:56 40.00223 -82.89082 822 ft 69 kts 274°
2026-05-09 00:56 40.00249 -82.89582 820 ft 35 kts 274°
2026-05-09 00:57 40.00223 -82.89765 823 ft 13 kts 197°
2026-05-09 00:57 40.00184 -82.89760 823 ft 0 kts 146°
2026-05-09 00:57 40.00181 -82.89757 823 ft 2 kts 140°
2026-05-09 00:57 40.00168 -82.89729 823 ft 5 kts 112°
2026-05-09 00:58 40.00164 -82.89667 822 ft 9 kts 93°
2026-05-09 00:58 40.00158 -82.89558 822 ft 16 kts 95°
2026-05-09 00:58 40.00147 -82.89374 822 ft 25 kts 94°
2026-05-09 00:58 40.00133 -82.89133 824 ft 27 kts 94°
2026-05-09 00:59 40.00120 -82.88894 825 ft 25 kts 94°
2026-05-09 00:59 40.00110 -82.88697 827 ft 14 kts 96°
2026-05-09 00:59 40.00036 -82.88630 824 ft 14 kts 141°
2026-05-09 00:59 40.00018 -82.88493 824 ft 18 kts 94°
2026-05-09 01:00 40.00002 -82.88432 823 ft 3 kts 174°
2026-05-09 01:00 39.99985 -82.88445 820 ft 4 kts 216°
2026-05-09 01:00 39.99965 -82.88460 824 ft 0 kts 209°